1998-067WC

Last updated on Wed Nov 08 2023 00:02:08 GMT+0000 (Coordinated Universal Time)

1 58229U 98067WC 23310.84079808 .00075441 00000+0 12928-2 0 9993 2 58229 51.6441 341.9371 0001659 68.7108 103.3941 15.50529345 693

Satellite not in orbit

1998-067WC